Powrót do katalogu

STARLINK-32225

AktywnyŁącznośćVLEO
NORAD 62036·PAYLOAD·🇺🇸 United States

Wystrzelony Nov 21, 2024 z Cape Canaveral Space Force Station

Loading…

Następne Przeloty (najbliższe 24 godziny)

TLE

ŚwieżeSource: CelesTrak SupGP

Epoka: Sep 14, 2026, 22:23 UTC

1 62036C 24216E   26257.93312500  .00032131  00000+0  11640-2 0  2577
2 62036  42.9996 267.7459 0001471 265.9678 179.4869 15.27555227    10

Śledź STARLINK-32225 w czasie rzeczywistym z AllMySat

Download on the App Store